Wind_Speed
53 54 55 56 56 55 54 53 51 49 48 47 46 46 47 48 49 49 50 50 49 48 49 48 46 46 48 49 48 47 47 49 50 51 53 53 52 51 50 51 54 55 55 54 54 55 56 56 57 59 61 61 62 62 62 62 62 59 54 47 37 35 44 51 54 55 52 51 50 48 46 45 43 42 41 40 39 38 36 36 35 34 33 32 29 27
53 54 57 57 56 55 53 51 50 48 47 46 46 48 49 50 50 50 50 50 48 47 49 47 45 46 47 49 48 47 48 49 50 52 53 52 51 49 49 50 52 54 54 54 55 56 56 57 57 59 59 60 60 60 60 60 60 58 51 45 40 38 42 48 52 53 50 49 48 46 44 43 42 41 40 39 38 37 36 35 35 34 33 31 29 27
54 56 58 57 55 54 52 49 48 46 46 46 48 50 51 50 50 49 49 49 47 46 47 46 45 46 47 48 47 47 48 49 51 52 52 51 49 48 47 49 50 51 52 52 54 56 56 55 56 57 56 57 57 57 57 56 56 53 45 43 44 42 42 45 51 52 49 47 46 44 43 42 41 40 39 38 37 36 35 35 34 34 33 31 30 27
54 56 57 56 55 53 50 48 46 45 46 47 49 50 50 50 48 48 48 47 45 44 45 45 44 45 47 47 46 47 47 49 51 51 51 49 47 46 45 47 48 49 50 52 53 54 53 52 53 54 54 54 53 53 52 51 50 45 39 40 42 41 39 40 46 51 48 46 44 43 42 41 40 39 38 37 36 36 35 34 33 33 32 31 29 28
53 55 55 55 54 52 49 47 45 45 46 47 48 49 50 48 47 47 47 44 42 43 44 43 43 44 45 46 45 46 46 48 51 51 50 49 47 45 44 45 46 48 51 52 53 52 50 50 51 52 52 51 50 48 48 46 45 41 38 40 40 39 34 30 36 45 45 43 42 41 41 40 39 38 37 36 36 35 34 32 31 30 30 29 28 27
52 53 52 53 53 51 49 47 46 45 45 46 48 49 48 46 45 45 45 43 41 42 42 41 41 42 43 44 44 44 44 47 50 49 48 48 45 43 43 44 46 49 50 51 50 49 48 49 50 51 51 49 47 45 44 42 40 38 36 37 38 38 36 31 33 40 43 41 40 40 40 39 38 37 37 36 35 34 32 31 29 28 27 27 27 27
51 51 50 50 50 49 48 47 47 45 45 47 48 47 46 45 44 43 43 41 40 40 40 39 40 41 41 42 43 42 43 46 47 46 46 45 43 41 42 43 45 48 49 49 48 47 47 48 48 48 47 46 44 43 41 38 36 34 33 33 33 33 36 37 37 41 44 41 38 38 39 38 38 37 36 35 34 33 32 30 28 27 27 26 26 27
51 49 47 47 47 47 48 48 46 44 46 49 48 46 46 45 43 41 40 40 39 39 39 38 38 38 39 40 41 41 41 43 44 44 44 42 40 40 40 41 43 47 48 47 46 45 45 45 44 43 43 43 41 39 37 35 33 32 30 30 30 30 33 37 39 42 44 41 38 38 38 38 38 37 35 34 34 33 32 31 29 28 27 27 27 27
50 47 45 45 45 47 49 48 45 46 49 49 47 46 45 44 41 39 39 39 38 37 37 37 36 36 38 39 39 39 39 39 41 42 41 39 38 38 38 40 43 45 45 44 43 42 42 40 38 39 40 39 38 36 34 31 30 30 29 28 28 26 27 35 39 39 41 41 39 38 37 37 38 36 35 34 34 33 33 34 33 32 30 29 29 30
48 46 45 45 45 48 49 46 46 49 49 48 46 45 44 42 40 38 38 38 37 35 36 36 33 33 36 38 37 37 38 38 38 38 37 37 37 36 37 40 42 42 42 41 40 39 36 34 33 35 36 36 35 33 30 28 27 27 27 27 27 24 24 33 38 38 40 40 38 37 36 37 37 35 35 34 34 34 35 36 37 36 35 34 33 33
47 45 45 45 47 49 48 45 46 48 47 46 44 43 41 40 38 37 36 36 34 35 37 35 32 32 35 37 35 36 37 36 36 36 35 36 36 36 37 39 40 40 40 39 37 33 30 29 31 33 34 33 32 29 27 25 22 23 24 25 26 24 23 30 35 37 39 36 35 36 36 36 36 35 35 35 34 35 35 36 37 37 37 35 34 33
45 44 44 45 47 47 45 44 45 46 45 44 42 40 39 38 36 35 34 34 33 35 37 33 30 31 35 37 35 34 35 35 35 35 35 36 36 36 36 36 37 37 37 36 32 29 28 31 33 33 33 31 29 27 24 18 14 17 21 23 25 23 22 28 33 35 37 37 37 38 37 36 36 35 35 35 35 36 36 36 36 36 35 34 33 32
42 42 42 44 45 44 43 43 43 44 43 41 39 38 36 35 34 33 32 32 32 35 36 31 28 31 36 37 34 32 34 34 35 35 35 36 36 35 35 35 36 35 35 34 31 29 31 33 33 33 32 30 27 23 18 13 14 19 22 25 26 22 19 24 29 31 33 37 40 39 38 37 36 36 36 36 36 36 36 36 35 35 34 33 32 31
39 40 40 42 43 42 41 41 42 42 40 38 37 35 34 33 32 32 32 31 32 33 33 28 27 31 36 36 33 32 34 35 35 36 36 36 35 35 35 36 36 35 35 34 32 31 31 31 31 30 29 25 19 15 16 20 25 28 29 29 28 21 17 19 22 25 29 35 41 42 41 39 37 36 36 36 37 36 36 35 34 33 33 32 32 31
38 38 39 41 41 40 39 40 41 39 37 36 35 33 33 32 32 32 31 30 30 31 30 27 26 31 36 36 32 32 34 35 36 36 36 35 34 34 34 34 34 33 33 31 30 30 28 29 29 28 26 21 15 15 22 27 28 29 31 30 27 22 21 24 25 23 26 34 43 44 41 39 37 36 36 35 36 35 35 34 32 31 30 30 30 30
38 38 39 40 40 39 39 39 38 37 37 36 33 32 32 32 31 30 30 29 29 29 28 26 27 32 36 34 32 32 34 35 35 35 35 33 32 31 31 31 31 30 29 27 27 27 27 28 29 28 27 23 21 25 31 30 29 30 31 30 27 23 24 29 32 31 32 34 36 37 37 36 36 35 33 33 33 33 32 31 30 30 29 28 28 29
36 37 38 38 39 38 38 37 36 36 36 33 30 31 31 30 29 29 29 29 29 29 28 27 29 32 34 32 32 32 34 34 35 34 33 31 30 30 30 30 30 27 25 24 25 26 27 30 30 29 31 30 28 30 31 30 31 33 32 31 30 26 26 31 35 37 38 37 34 33 34 34 33 32 32 33 34 33 32 31 30 30 29 28 28 29
36 36 37 37 38 37 36 36 35 35 34 32 31 31 30 28 29 29 28 28 28 29 28 29 30 32 32 32 32 33 34 34 34 33 31 31 31 32 33 33 31 28 26 25 25 24 26 30 31 31 34 35 34 32 31 30 32 34 35 36 35 31 29 31 34 37 40 40 39 38 37 37 38 38 38 38 37 35 35 34 33 31 30 28 29 30
36 36 36 37 38 37 36 36 35 35 33 32 31 30 29 28 28 28 28 28 28 29 29 30 31 32 32 32 33 34 34 34 34 32 31 33 33 34 35 34 33 33 31 29 27 25 26 30 31 31 34 36 36 34 33 32 32 33 35 38 39 36 33 32 33 36 40 42 43 42 42 43 44 43 39 35 33 34 35 35 35 34 32 31 31 31
36 37 37 37 38 37 36 36 35 34 33 32 31 29 29 29 28 28 28 28 28 28 29 30 31 32 33 33 33 34 34 33 32 31 32 34 34 34 34 32 31 31 30 30 29 28 28 28 29 29 31 35 37 37 35 34 32 33 35 39 41 40 38 37 36 38 41 43 44 44 44 43 42 39 34 30 30 31 32 32 33 34 34 33 32 33
37 38 38 37 37 36 35 35 35 33 32 31 30 29 29 29 28 28 28 28 28 29 30 31 31 32 33 33 33 33 32 30 30 31 33 35 34 34 36 37 34 30 28 30 30 28 27 27 27 28 28 29 33 35 36 36 35 35 38 41 41 41 41 42 42 43 43 43 45 46 44 42 39 36 34 32 32 32 30 29 30 32 32 32 32 32
37 38 38 38 37 36 35 35 35 33 32 30 29 29 29 28 27 28 29 29 29 29 29 30 32 33 33 33 33 32 30 28 29 32 34 34 33 35 38 39 35 31 30 30 30 28 27 27 27 28 29 29 29 30 34 38 39 37 37 38 39 40 41 42 44 47 46 44 44 46 46 43 40 38 36 35 34 33 31 30 31 33 33 32 32 33
38 39 39 38 37 36 35 35 35 33 31 30 29 29 29 28 27 28 29 29 29 28 28 30 32 34 34 34 33 31 29 29 32 34 34 34 34 36 38 38 33 31 30 28 27 26 25 26 26 27 29 29 28 27 30 34 38 40 38 38 38 39 41 42 45 47 49 47 43 42 42 42 41 39 38 35 34 34 34 34 35 35 35 34 33 34
38 39 39 39 37 36 36 35 34 33 30 30 30 30 30 29 28 28 29 29 29 29 28 29 32 35 35 34 33 31 30 32 34 36 36 36 36 38 40 38 34 32 30 25 22 23 24 27 28 27 27 24 22 23 26 29 33 38 40 40 40 41 41 42 43 45 47 47 44 40 38 38 37 37 36 36 36 37 37 36 36 36 36 35 34 35
39 40 41 40 38 37 36 34 34 33 31 31 31 31 31 30 29 29 28 28 28 29 29 30 32 35 35 35 34 32 32 35 37 39 40 40 40 42 43 41 37 35 32 24 20 23 26 27 28 27 26 22 21 26 29 30 33 36 37 37 39 40 41 40 39 39 39 39 39 38 36 36 37 37 37 37 38 39 38 37 37 38 38 37 37 37
40 41 41 40 38 36 36 35 35 34 33 32 32 32 32 31 30 29 28 28 29 29 30 31 33 35 35 35 35 34 35 38 40 43 44 44 45 46 46 43 39 38 36 28 23 27 31 31 28 26 26 25 26 32 36 36 38 36 33 33 35 37 38 38 37 35 34 33 34 35 36 39 41 41 41 40 41 41 40 38 39 40 40 39 38 38
40 41 40 40 38 37 36 36 37 36 34 33 33 33 33 32 31 30 29 28 29 29 30 32 34 35 35 36 36 36 38 40 43 47 48 48 48 49 48 45 42 41 38 32 30 34 35 34 31 30 30 31 33 38 39 38 38 36 32 31 33 33 34 34 34 34 32 29 28 31 36 40 43 44 43 42 41 42 41 40 41 42 41 40 39 39
42 42 41 41 40 38 38 37 38 37 36 35 34 34 34 33 32 31 30 29 30 29 30 32 34 35 36 38 38 39 41 42 46 51 51 50 51 52 50 47 45 44 40 34 36 39 38 37 36 36 36 36 36 37 37 36 36 35 34 35 36 34 32 30 30 31 30 27 28 31 35 38 40 41 41 40 41 41 41 41 41 41 40 40 40 41
45 44 43 42 41 39 39 39 39 38 37 36 36 35 35 34 33 31 30 30 30 30 30 32 34 36 38 39 40 41 43 45 49 53 53 53 55 55 52 49 48 48 44 40 42 41 38 39 41 41 40 39 37 36 35 36 38 36 36 37 37 37 34 32 32 32 31 31 35 38 38 38 38 39 40 41 42 43 42 42 40 39 38 39 41 41
46 47 46 45 43 41 40 40 40 39 38 38 37 36 36 35 34 33 31 31 31 31 31 32 34 37 39 40 41 42 45 47 51 55 55 57 59 57 54 51 49 50 49 46 46 43 40 40 42 45 45 42 40 38 36 36 36 35 35 36 37 38 37 36 37 36 33 34 38 41 42 42 42 42 43 43 44 45 45 44 42 40 40 41 41 41
46 47 47 46 44 43 42 41 41 41 40 39 38 37 37 36 36 34 33 32 32 32 33 33 35 38 39 41 42 44 46 48 52 56 58 61 62 58 54 51 48 50 51 50 49 47 45 43 43 45 46 44 41 40 38 36 34 32 32 35 37 39 39 39 39 39 38 36 37 40 44 46 46 45 46 46 46 47 47 46 45 44 44 43 43 43
44 45 46 46 45 44 44 43 43 42 41 40 39 39 38 38 37 36 34 33 33 34 34 34 36 38 40 41 43 44 47 49 53 57 60 63 64 59 55 52 48 49 52 53 52 51 48 46 45 45 46 45 43 41 39 39 38 35 33 35 38 39 40 40 39 38 38 39 39 39 42 46 47 47 47 47 49 49 49 49 48 47 47 47 48 49
44 44 45 47 47 46 46 46 45 44 43 41 41 40 40 39 39 37 36 35 35 35 35 35 36 38 40 42 44 45 47 50 53 57 61 64 65 62 59 55 50 49 51 52 53 54 53 49 47 47 48 48 47 44 42 42 44 41 38 37 40 40 40 40 41 40 39 40 41 42 43 45 47 48 49 49 49 51 51 52 52 51 50 50 51 51
45 45 46 48 48 48 49 48 47 46 45 44 43 43 42 41 40 39 38 37 37 37 37 37 37 39 41 43 44 45 48 50 53 56 60 64 65 65 63 58 53 51 51 50 49 52 54 54 51 50 50 51 51 49 47 47 48 48 45 44 45 45 45 44 45 45 45 44 45 45 46 46 46 47 48 49 50 51 52 53 54 55 55 55 54 53
47 47 48 49 49 50 50 49 48 48 47 46 45 45 44 43 42 41 40 39 39 39 38 38 39 39 41 43 45 45 47 50 53 56 60 63 65 66 66 63 58 54 53 51 48 47 52 56 56 55 54 53 53 52 52 53 53 53 54 53 52 52 52 51 51 50 49 49 49 50 51 50 49 49 49 50 51 51 51 51 51 51 52 52 53 53
48 48 49 50 51 51 51 50 50 50 48 47 47 46 45 44 43 43 43 42 41 41 41 40 40 40 41 42 44 46 47 50 53 56 59 62 65 67 68 67 63 58 56 54 51 48 49 53 57 59 59 57 55 55 55 56 57 57 58 58 58 57 57 57 57 57 55 54 53 54 54 55 55 55 55 55 54 53 53 52 51 51 50 49 49 49
49 50 51 52 52 52 52 51 51 51 49 48 48 47 46 46 45 45 45 45 45 44 43 43 42 42 42 42 44 46 48 50 53 55 58 62 65 67 69 70 67 63 60 59 57 54 52 52 55 59 61 61 60 58 58 59 60 61 61 60 60 61 61 61 61 61 61 60 59 59 58 58 59 60 60 59 58 56 56 56 55 55 56 56 55 53
54 53 53 53 52 53 53 52 52 52 51 50 49 49 48 48 48 48 48 49 48 47 46 46 45 44 44 44 44 46 49 51 53 55 58 61 64 67 69 71 71 69 66 64 62 60 59 57 57 58 60 62 62 62 62 63 63 64 64 63 62 62 63 64 65 65 64 63 63 62 61 59 59 59 61 61 60 59 59 59 59 60 61 62 61 61
56 55 55 54 53 52 52 53 53 53 52 51 51 50 50 50 50 50 50 50 50 49 48 48 47 47 46 45 46 46 48 50 52 55 58 60 64 66 69 71 73 73 72 69 67 65 64 64 62 60 61 62 63 64 65 66 66 66 66 65 64 63 64 65 67 67 67 66 65 65 64 63 61 61 61 62 62 62 62 62 63 64 65 66 66 66
55 53 54 53 52 52 52 52 52 52 52 52 52 52 52 52 52 53 52 52 51 50 50 50 50 49 48 48 47 47 47 49 51 54 57 60 62 65 68 70 73 74 75 74 72 71 69 68 67 66 65 64 64 65 65 67 69 70 70 68 66 64 64 66 67 68 68 68 68 68 68 68 68 67 65 64 65 65 66 66 67 67 68 69 69 70
56 53 54 53 52 51 52 52 52 52 52 53 53 54 53 54 54 54 53 53 52 52 52 52 52 51 51 50 50 48 48 48 50 52 56 59 62 64 67 69 71 73 75 76 76 76 74 72 71 69 69 69 68 68 67 68 69 72 73 73 71 67 66 66 67 68 68 68 69 70 70 70 71 71 71 71 70 69 70 70 71 71 72 72 72 72
56 54 55 55 53 53 53 53 53 52 52 53 54 54 54 54 56 56 55 55 54 54 54 53 53 53 53 52 51 50 50 51 50 51 54 57 60 63 65 68 71 72 74 75 77 78 77 76 74 73 72 72 72 73 72 71 71 72 74 76 76 75 72 70 69 69 68 68 68 69 71 71 71 71 72 73 73 73 73 74 74 75 76 76 76 76
57 56 57 57 56 55 55 55 54 53 53 53 54 54 54 55 56 57 56 56 56 55 55 55 55 55 54 53 53 52 53 53 53 53 53 55 57 60 64 66 69 71 72 73 75 76 77 78 78 77 76 75 76 76 77 76 76 76 76 77 78 79 79 78 76 74 73 71 71 71 71 71 71 71 71 72 72 73 74 75 76 77 78 78 79 79
56 56 58 58 58 57 57 57 57 56 55 55 56 56 56 56 57 57 58 58 57 56 56 56 56 56 55 55 55 54 55 55 55 55 54 55 57 59 61 64 67 69 71 72 73 75 76 77 78 79 79 78 79 79 80 81 80 80 79 79 80 81 82 83 84 83 81 79 78 77 76 75 74 74 73 73 74 74 75 76 77 78 79 80 80 81
54 56 58 59 59 59 59 59 59 58 58 58 58 58 59 59 59 58 59 60 60 59 58 58 58 57 57 57 57 57 56 56 57 57 56 57 58 59 60 62 64 67 69 71 72 74 74 75 76 77 78 78 79 80 82 83 83 84 83 83 83 83 83 84 85 86 86 85 84 84 83 82 81 80 78 77 77 77 78 78 79 80 81 81 82 83
51 53 56 59 60 60 61 61 61 61 61 61 61 61 61 62 62 62 62 63 63 63 62 60 59 60 60 60 60 59 58 57 58 59 59 59 59 60 61 61 62 64 67 69 71 72 73 74 75 75 75 76 76 76 77 79 80 82 84 85 86 86 86 86 86 86 86 87 87 87 87 87 87 87 87 86 86 86 86 85 85 84 84 84 85 85
50 51 53 56 59 61 62 63 63 63 63 63 63 64 64 65 65 65 65 66 66 67 66 64 63 63 63 63 63 61 60 59 59 60 60 61 62 62 62 63 63 64 65 67 69 71 73 74 75 75 75 75 74 73 72 72 72 73 74 76 78 79 81 82 82 82 82 82 82 83 83 84 85 85 86 87 87 87 87 86 85 84 84 83 82 82
49 49 50 52 55 58 61 63 64 65 65 65 65 65 66 67 68 68 69 69 70 70 70 69 67 66 67 67 66 64 63 62 61 62 62 62 63 63 63 64 65 66 66 67 69 71 72 74 75 76 76 76 75 74 72 70 69 69 68 68 68 69 69 70 71 72 73 73 73 73 74 75 76 76 76 76 76 77 77 77 76 77 78 78 78 78
47 48 48 50 52 54 57 60 62 64 66 67 67 68 68 69 69 70 71 72 73 74 74 73 72 71 70 69 68 67 66 65 64 65 65 64 63 63 64 65 66 67 68 69 70 71 72 73 74 76 77 77 77 76 75 74 72 72 71 71 71 70 69 69 68 68 68 67 68 68 68 68 68 68 68 68 69 70 73 74 75 76 77 78 80 81
45 46 47 48 49 52 54 56 58 60 63 65 68 69 71 71 72 72 73 74 75 76 77 77 76 74 73 73 71 68 67 67 67 67 68 67 66 66 66 67 67 68 69 69 70 72 73 74 74 75 76 77 78 78 78 78 77 76 76 76 77 77 76 75 74 73 72 71 71 71 71 70 69 69 69 69 70 71 73 76 78 80 81 82 85 87
41 44 45 46 48 50 51 53 55 57 59 62 64 67 70 72 73 74 76 76 77 78 79 79 79 78 77 76 74 71 67 65 66 69 70 70 70 70 70 70 70 71 71 72 72 72 73 75 75 76 76 77 78 79 79 80 80 81 81 81 81 81 82 81 81 80 79 78 77 77 76 76 77 77 77 78 78 79 80 81 83 85 86 88 89 92
Wind_Direction
268 267 265 264 263 261 261 261 261 261 260 260 260 260 260 259 257 255 254 253 252 253 253 252 251 251 251 251 251 250 248 247 247 247 248 248 247 247 246 246 247 247 247 246 245 245 244 243 242 244 246 248 251 253 256 258 260 263 266 266 262 266 274 279 282 283 282 280 278 276 275 273 272 270 270 269 270 270 269 269 269 270 272 273 273 274
267 265 263 262 262 261 260 260 261 261 261 261 260 260 259 258 257 254 254 253 252 252 254 252 251 251 251 250 250 249 249 247 247 246 246 246 245 245 244 245 246 247 247 246 246 245 244 244 244 245 246 248 250 252 255 257 259 262 264 263 260 258 264 273 279 281 281 279 277 275 273 271 270 269 269 269 269 269 268 268 268 269 271 271 271 272
265 262 260 260 261 261 260 260 260 261 260 260 259 259 258 258 256 255 254 253 252 253 254 253 252 252 252 250 249 249 248 248 248 247 247 247 246 245 245 245 246 247 247 246 246 246 245 245 246 247 247 248 250 252 254 256 259 261 262 264 264 259 259 267 275 279 280 278 275 273 272 270 269 268 268 268 268 267 267 267 268 269 270 270 270 270
262 260 259 259 259 260 260 260 259 259 258 258 258 258 258 257 256 256 254 253 253 255 255 253 252 253 253 251 250 248 248 249 249 248 248 248 247 246 246 246 247 247 246 245 246 247 247 247 247 248 248 248 249 251 253 255 257 258 257 258 260 260 260 265 272 277 279 277 275 273 271 269 268 268 268 268 267 266 267 267 268 269 269 268 268 268
261 260 259 258 258 258 259 258 257 256 256 257 258 258 258 257 257 257 256 254 254 256 256 253 252 254 254 252 250 248 248 248 248 248 248 247 246 245 245 245 246 245 245 245 246 247 247 247 246 247 247 247 248 250 251 253 255 254 250 250 251 253 253 253 265 275 276 276 274 273 271 269 269 268 267 266 267 267 268 269 269 267 266 267 267 267
261 259 258 257 256 256 257 257 256 254 255 257 257 258 258 259 259 258 257 255 255 257 257 254 253 254 254 253 250 247 246 246 246 247 247 246 245 244 243 242 242 243 245 245 246 247 247 246 246 246 247 248 248 249 251 252 254 253 249 249 249 252 249 243 253 267 273 275 275 273 272 271 270 268 267 267 268 268 269 268 267 266 265 266 266 265
261 259 257 257 256 255 255 255 254 253 255 257 257 258 260 260 260 258 258 257 256 257 257 254 252 252 252 251 249 246 244 245 245 245 246 246 244 242 241 240 241 243 244 245 245 246 246 246 247 248 249 249 248 249 250 251 252 252 250 249 249 252 253 249 248 257 267 274 275 275 274 273 270 268 267 268 268 268 268 267 266 265 265 265 266 266
259 258 258 257 256 255 254 253 253 254 255 256 256 258 259 260 260 259 258 259 257 256 257 254 251 250 249 248 247 245 243 243 244 244 244 244 242 239 238 237 238 241 242 243 244 244 245 246 248 250 250 250 249 248 248 248 249 250 250 249 248 248 253 256 254 256 265 272 275 277 276 274 271 269 268 268 268 267 265 264 264 264 264 264 266 268
258 258 257 256 255 253 252 251 252 253 253 254 255 256 258 258 259 258 257 258 257 255 256 254 250 248 247 245 243 243 241 241 241 242 242 242 240 237 235 234 237 240 242 242 243 243 244 247 249 250 251 251 249 247 245 245 247 250 251 251 251 250 252 260 263 264 268 273 276 277 276 274 273 272 271 269 268 266 264 263 263 263 264 265 266 269
256 256 255 253 252 250 249 248 249 250 250 252 253 254 255 256 257 256 256 257 257 256 255 251 247 245 244 243 240 239 239 237 238 240 240 239 238 235 233 233 235 239 241 241 242 242 244 246 248 249 250 249 248 245 243 244 247 252 256 257 258 255 249 257 265 268 270 274 276 276 276 276 275 274 272 270 268 267 264 263 263 264 266 267 268 270
253 253 253 251 250 249 248 248 248 249 250 251 251 252 254 255 255 255 255 256 256 256 253 248 244 241 241 240 237 235 236 235 235 235 236 236 235 233 232 232 234 237 240 241 242 243 243 244 244 245 245 245 243 242 241 242 249 259 266 268 269 266 257 258 264 268 272 273 272 275 279 279 277 275 272 271 269 267 265 264 264 265 266 267 268 270
251 251 251 250 249 249 249 248 248 248 249 249 250 251 252 253 254 255 255 255 255 253 251 246 240 237 239 238 234 232 234 233 232 232 232 233 234 233 233 234 236 238 241 243 243 241 238 236 236 236 236 236 235 236 237 241 253 266 272 271 269 267 263 262 265 269 272 272 271 276 281 279 277 275 273 272 270 268 267 266 265 265 266 266 266 266
252 251 249 249 249 249 248 247 247 247 247 248 249 250 251 253 254 255 254 254 252 251 249 244 237 235 237 238 233 230 232 232 231 230 230 230 231 231 231 232 234 235 238 240 238 234 232 231 231 231 231 231 231 232 230 222 223 232 241 248 252 256 258 262 269 274 275 275 276 280 282 279 277 275 273 272 271 270 269 267 266 265 264 264 263 262
249 248 246 246 246 245 244 244 244 244 245 246 248 249 250 251 252 252 251 250 249 248 247 241 234 234 237 237 232 228 229 230 229 229 228 228 228 228 228 228 229 230 232 234 233 231 229 229 229 229 228 227 224 224 218 212 212 216 221 229 236 239 236 239 254 266 270 272 274 276 278 276 273 272 272 273 273 272 271 269 267 265 264 263 262 261
244 243 242 242 242 241 240 239 240 242 242 243 244 245 247 247 248 249 248 247 246 244 243 237 231 233 236 236 231 227 228 229 228 228 228 227 227 227 228 229 230 230 231 232 231 229 227 226 225 222 219 210 196 211 223 218 212 213 220 225 227 225 219 221 229 237 249 263 270 272 272 270 266 265 267 270 272 272 271 269 267 266 264 263 261 260
241 240 239 239 239 238 237 238 238 239 239 239 240 242 244 245 246 247 246 244 241 240 238 232 227 231 235 234 230 227 228 228 228 228 227 227 226 226 226 227 227 227 228 229 228 225 222 222 220 216 210 199 198 218 225 220 215 218 221 223 226 226 220 220 222 222 230 246 260 267 269 267 263 261 263 268 270 271 270 267 264 263 263 263 262 261
240 238 237 237 237 237 236 237 236 237 238 238 239 240 242 242 243 244 243 241 238 236 233 228 226 229 233 232 228 226 226 226 226 226 225 223 221 220 219 217 216 216 217 218 220 221 220 219 215 211 206 200 206 221 223 216 217 221 221 220 225 228 222 221 224 226 229 235 242 253 262 264 264 264 267 273 274 271 270 266 262 262 262 261 259 258
239 235 234 234 235 235 234 234 234 235 236 236 236 238 238 238 239 241 240 239 237 234 230 225 225 227 229 228 225 223 222 223 223 222 219 215 213 211 208 205 201 197 200 208 211 214 222 223 216 209 206 205 207 216 222 221 219 220 221 221 222 223 222 225 228 230 234 237 238 245 254 260 266 271 275 278 277 273 270 266 263 261 258 256 254 254
235 232 230 231 232 231 231 231 231 231 232 233 234 235 235 235 236 237 236 235 234 232 229 226 224 224 224 224 222 221 219 219 219 217 213 210 208 206 204 200 193 187 191 200 202 203 212 221 219 211 209 210 211 216 222 226 225 224 224 224 224 223 224 228 232 236 239 242 244 248 255 260 267 273 275 277 275 271 269 267 264 261 258 256 254 255
231 229 227 228 229 229 229 230 230 230 231 232 233 233 233 233 234 235 234 232 231 230 229 226 224 222 222 220 219 219 218 217 215 211 208 207 205 203 200 194 189 189 191 193 195 197 204 213 219 219 216 214 214 218 222 227 231 231 229 227 226 227 229 231 236 241 242 243 246 251 256 261 266 270 270 269 269 269 269 268 266 263 261 259 259 259
229 228 226 226 228 228 228 229 230 229 229 231 232 231 231 232 233 233 232 230 229 229 228 226 222 220 220 219 218 218 217 214 209 204 204 204 201 198 194 188 187 192 194 192 192 197 202 207 217 227 230 225 222 223 226 230 234 236 235 233 232 232 233 235 238 243 245 245 246 250 254 259 264 265 263 262 264 266 266 265 264 262 261 260 260 260
226 227 226 224 225 226 227 228 229 227 227 229 229 229 229 231 232 232 231 229 228 227 227 226 221 217 216 217 217 217 214 208 202 199 200 200 195 194 194 190 188 190 192 195 198 200 203 209 217 227 235 237 236 235 233 234 235 237 239 240 241 239 239 239 240 242 246 248 248 248 251 255 258 260 260 260 260 259 258 260 263 263 261 260 259 258
225 226 227 224 223 224 225 226 228 226 225 227 227 227 228 229 230 230 229 229 228 227 226 225 222 218 214 212 213 213 209 201 196 195 195 194 191 191 192 188 186 190 194 199 203 204 209 216 223 231 236 239 243 248 248 245 242 242 243 244 244 244 245 245 245 244 246 249 250 249 249 251 253 256 256 254 252 252 254 259 262 261 259 259 259 258
224 226 228 225 222 222 223 225 227 225 223 225 226 225 225 227 227 227 227 228 228 227 225 223 222 219 215 211 208 206 202 196 193 191 190 189 188 187 186 184 184 190 194 197 204 209 216 227 232 237 238 236 238 244 250 252 248 247 249 248 247 248 248 247 247 246 247 249 252 252 250 249 248 248 248 247 246 250 255 259 260 257 256 257 258 258
224 225 227 226 222 221 222 223 226 226 223 223 223 223 224 225 225 224 224 225 226 226 223 220 219 218 215 211 206 201 197 193 191 188 186 186 185 182 181 182 183 186 187 188 201 209 214 225 233 236 239 239 233 231 236 244 248 249 251 252 250 249 248 247 247 247 248 249 250 250 247 243 241 240 242 245 248 251 254 254 253 253 254 256 257 258
223 224 226 226 223 221 221 222 224 225 222 221 221 221 222 223 224 222 221 222 225 225 222 218 217 217 215 211 206 199 194 192 189 186 183 183 182 179 179 179 180 184 184 180 192 206 212 220 223 226 233 236 232 230 232 240 246 248 250 251 250 250 250 250 251 251 249 249 250 250 245 240 238 240 244 248 250 252 251 249 248 250 254 257 258 259
221 224 225 226 224 221 221 223 224 223 221 221 221 221 221 223 223 221 219 221 224 224 222 219 216 215 214 211 206 199 194 192 188 184 182 183 182 179 180 180 181 184 184 183 193 204 212 217 215 214 221 225 227 229 231 236 243 244 246 250 251 252 252 252 255 254 251 250 250 251 248 244 243 245 248 251 252 251 249 248 249 254 258 260 259 259
219 222 223 225 224 221 221 223 224 224 221 220 221 220 220 221 222 221 218 220 223 223 223 220 217 215 213 210 206 199 194 193 188 184 184 185 184 182 183 184 186 188 188 191 197 202 209 214 211 210 215 220 225 229 230 235 240 242 244 248 250 251 250 250 253 252 245 235 232 237 243 246 248 249 251 252 253 252 252 252 255 260 263 262 261 263
217 218 220 223 223 221 220 222 224 224 223 221 221 220 220 220 221 221 219 219 222 222 222 220 217 215 213 210 207 201 195 193 190 187 187 187 186 185 186 188 192 194 195 197 199 202 209 214 215 215 217 220 224 227 228 232 237 239 243 247 248 248 246 244 245 244 239 231 227 230 237 243 247 249 251 253 254 255 255 255 257 260 261 261 264 267
220 218 218 220 221 220 220 221 223 224 224 223 222 221 220 220 220 220 218 219 222 222 221 219 217 216 214 211 208 203 198 195 192 190 190 188 186 186 188 192 196 199 200 201 202 204 208 212 216 218 220 221 223 223 223 227 233 237 241 245 246 246 245 245 244 243 240 237 233 234 239 243 246 249 252 253 254 255 256 255 255 256 257 260 264 268
224 221 220 220 220 219 220 222 222 223 224 224 224 222 221 220 220 220 218 218 222 223 222 220 218 216 215 212 210 205 201 198 195 193 192 189 188 189 192 195 199 203 204 204 205 208 210 213 214 215 217 219 221 221 220 222 227 233 238 242 243 244 245 244 245 247 246 242 239 239 242 244 245 248 251 252 252 252 254 256 256 255 256 258 260 262
227 224 223 223 222 220 220 222 222 223 224 224 225 224 222 221 221 221 220 219 221 223 222 221 220 218 216 213 211 208 204 201 198 197 195 192 192 194 197 197 201 207 208 208 209 211 213 216 217 216 217 218 220 221 220 220 222 225 229 236 239 240 242 242 243 246 247 247 244 243 244 245 246 248 250 251 251 251 252 254 256 257 258 259 260 261
229 226 224 224 223 222 221 222 222 223 224 224 225 225 223 222 221 222 221 220 221 222 223 222 221 220 218 215 212 209 206 204 202 200 199 197 197 199 200 200 203 210 212 212 214 216 216 218 219 219 220 222 223 223 221 220 223 224 225 231 234 235 237 239 239 239 242 245 247 247 247 248 249 250 251 252 254 254 254 254 255 257 260 262 264 265
227 226 225 226 226 225 224 224 223 224 224 224 224 225 224 222 221 222 223 222 222 223 223 223 223 221 220 217 215 211 208 207 206 204 203 202 201 202 204 203 204 210 214 215 218 221 221 220 220 220 221 224 226 225 223 221 224 227 228 230 234 235 234 235 235 236 238 241 245 247 248 249 250 251 252 255 257 258 259 260 260 261 262 263 265 265
226 225 225 226 227 227 227 226 226 226 225 225 226 226 225 223 222 222 222 223 224 224 223 224 224 223 222 220 217 213 210 209 209 207 207 206 205 205 206 207 207 210 214 216 219 223 225 224 223 222 223 224 225 226 226 223 223 226 229 231 234 236 237 237 237 238 238 240 242 245 247 249 250 251 253 255 257 258 259 262 263 264 265 266 265 265
226 226 226 226 227 228 228 228 228 229 228 227 228 228 227 226 224 223 223 223 224 224 224 224 224 224 223 221 219 216 213 211 211 210 210 209 209 208 208 209 210 211 214 217 219 222 225 226 226 225 225 226 226 226 226 226 225 227 231 234 237 239 240 241 242 242 242 241 242 245 248 250 251 252 254 256 256 256 257 259 260 261 261 262 263 264
227 227 227 227 227 227 229 229 229 230 230 230 230 231 230 229 227 225 224 224 224 224 224 224 224 224 224 223 221 218 215 213 212 212 212 212 212 211 210 211 212 213 215 217 220 222 225 227 228 227 227 229 229 228 227 227 227 229 232 236 241 243 243 243 244 245 245 244 244 245 248 251 252 253 255 257 257 256 256 256 257 258 258 258 259 261
226 225 227 228 228 228 229 229 230 231 231 231 231 232 232 232 231 229 227 226 226 225 226 225 224 224 225 224 222 220 218 216 214 214 215 215 215 215 214 213 214 215 217 219 220 222 225 227 228 229 229 230 231 231 231 230 230 232 234 237 242 245 246 245 245 246 246 247 247 247 247 249 252 253 254 256 256 256 256 256 257 258 259 260 261 262
227 225 226 227 228 228 229 230 231 232 233 232 232 232 233 233 234 233 232 231 229 228 228 228 227 225 225 225 225 223 221 219 217 216 216 217 218 218 218 217 217 217 219 220 222 223 226 228 229 230 231 231 232 233 233 232 232 234 236 239 243 246 247 248 248 248 248 248 248 249 249 249 250 252 252 253 254 255 256 257 258 259 261 262 263 264
232 231 230 229 229 229 230 231 232 233 234 235 235 234 234 234 235 236 236 235 234 231 230 230 230 229 227 226 226 226 225 223 220 219 218 219 220 220 221 221 220 220 221 222 223 225 227 228 230 232 233 234 235 235 235 235 234 235 237 240 244 246 248 249 250 251 252 251 251 251 251 251 251 251 252 253 254 255 256 258 259 260 262 263 264 266
232 232 234 234 232 231 231 232 232 233 234 236 237 237 236 236 237 237 237 238 238 236 234 233 232 232 231 230 228 227 227 226 225 223 221 221 221 222 222 223 224 224 225 225 225 226 228 229 231 232 234 236 237 238 238 238 237 237 238 240 243 245 247 249 250 252 253 255 255 255 254 254 254 254 254 254 255 256 257 258 260 261 262 264 266 267
230 230 233 235 234 233 233 233 234 233 234 235 237 238 238 238 239 240 239 239 240 239 238 236 235 234 234 234 233 231 229 228 227 226 225 224 224 224 225 225 226 227 229 229 229 229 230 231 232 233 235 236 238 239 240 240 241 241 241 242 243 244 246 248 249 250 251 253 256 258 258 258 258 257 257 257 257 258 258 259 260 261 262 264 266 268
229 229 230 233 234 234 234 234 234 234 234 235 237 238 238 238 240 242 242 242 241 241 241 240 238 237 235 234 235 235 234 232 230 228 228 227 226 226 227 228 229 229 231 232 233 233 232 233 234 235 236 237 238 239 241 241 242 243 244 244 246 246 247 248 249 250 250 251 253 255 257 259 260 260 261 261 261 261 262 262 262 263 264 266 267 269
230 230 231 232 233 234 235 236 236 235 235 235 236 238 239 239 240 241 243 243 243 242 242 242 241 240 238 236 235 235 236 236 235 233 231 230 229 228 228 229 230 231 232 234 235 236 236 236 237 238 239 240 240 241 242 242 243 244 245 246 247 249 250 250 251 251 251 252 253 254 256 257 259 260 261 262 262 263 263 264 265 265 266 267 269 270
233 232 232 233 234 235 235 236 237 236 236 236 237 238 239 240 240 241 242 244 244 243 242 242 242 242 241 239 238 236 235 236 237 237 236 234 233 232 232 231 231 232 233 234 236 237 238 238 239 240 241 243 243 243 243 244 245 246 246 247 248 249 251 253 253 254 254 254 255 256 257 258 258 259 259 259 260 261 262 263 264 264 265 266 267 267
236 234 234 235 235 235 236 237 237 237 237 237 237 238 239 240 241 242 242 243 244 244 242 241 241 241 242 241 240 239 237 236 236 237 237 237 236 235 235 235 235 235 235 235 236 237 238 239 240 242 243 244 245 246 246 247 247 248 249 250 250 251 252 254 255 256 257 257 258 259 259 260 261 261 261 260 261 262 263 263 263 264 264 265 265 265
238 236 235 236 236 236 236 237 238 238 238 238 237 238 239 240 241 243 243 244 245 245 245 243 242 241 241 241 241 240 239 238 237 237 237 238 238 237 236 236 237 238 239 238 237 237 238 239 240 241 242 244 245 246 247 248 249 250 251 252 253 254 255 256 257 258 259 260 261 262 263 263 264 264 265 265 265 265 265 265 264 264 264 265 265 264
240 239 238 237 237 238 238 238 238 239 240 239 239 239 239 240 241 242 244 245 246 247 247 246 245 243 242 241 241 240 240 240 239 240 240 239 239 239 239 238 238 238 239 240 240 239 238 239 239 240 241 242 244 244 245 245 247 249 250 251 252 253 255 257 258 260 261 263 264 265 266 266 267 267 267 267 268 268 268 268 268 267 268 268 268 267
242 242 241 240 239 239 240 240 240 240 240 240 240 240 240 240 241 242 243 244 246 247 248 248 248 247 246 244 243 241 240 241 241 242 242 242 241 241 241 241 240 239 239 240 241 241 241 240 240 240 241 242 242 243 244 244 245 246 248 249 249 250 251 252 254 255 257 258 260 262 263 264 264 264 265 266 267 268 270 271 271 272 272 272 272 273
244 244 244 244 243 242 241 242 242 242 242 241 241 241 241 241 241 241 242 243 245 247 248 249 250 250 249 249 247 244 241 240 240 242 244 244 244 243 243 242 242 241 240 240 240 240 241 241 242 242 242 242 242 243 244 244 245 246 247 248 249 250 250 251 251 252 252 253 254 256 257 258 258 257 258 259 260 262 264 267 269 270 271 271 272 273
245 246 247 247 246 246 245 244 244 243 243 243 242 242 242 242 242 242 242 243 244 246 247 249 250 250 250 251 252 250 246 241 239 239 241 243 244 244 243 243 242 242 242 241 241 241 241 242 242 242 242 242 242 243 244 244 245 246 247 248 249 250 251 252 253 253 253 253 253 253 254 255 256 256 257 257 258 259 260 262 264 266 267 268 269 270
Height
10574 10574 10573 10572 10573 10575 10577 10580 10583 10586 10589 10591 10592 10593 10592 10592 10592 10594 10595 10597 10602 10604 10606 10610 10614 10615 10616 10616 10619 10623 10626 10627 10629 10631 10633 10636 10640 10646 10649 10650 10649 10650 10653 10658 10660 10662 10665 10668 10670 10671 10672 10675 10677 10680 10683 10687 10690 10697 10707 10711 10712 10708 10699 10695 10697 10697 10698 10699 10699 10698 10699 10699 10698 10699 10700 10700 10701 10702 10703 10703 10703 10704 10705 10706 10707 10707
10567 10567 10564 10563 10566 10568 10571 10574 10578 10580 10583 10585 10585 10585 10584 10584 10585 10588 10589 10591 10597 10600 10600 10604 10608 10609 10609 10611 10613 10616 10619 10620 10622 10624 10625 10629 10634 10638 10642 10643 10643 10644 10648 10651 10653 10655 10657 10660 10663 10665 10667 10671 10674 10678 10680 10684 10688 10695 10703 10704 10707 10708 10699 10693 10694 10694 10694 10695 10694 10694 10694 10694 10694 10695 10696 10697 10698 10698 10699 10699 10699 10700 10701 10702 10703 10704
10558 10557 10555 10556 10559 10562 10565 10569 10572 10574 10577 10577 10577 10577 10577 10577 10579 10582 10584 10587 10592 10595 10595 10599 10603 10603 10603 10605 10608 10611 10613 10613 10614 10616 10619 10623 10629 10633 10636 10637 10637 10639 10642 10645 10646 10648 10651 10655 10658 10659 10663 10667 10671 10674 10677 10680 10685 10693 10701 10699 10699 10703 10698 10692 10691 10691 10691 10691 10691 10691 10690 10690 10690 10691 10692 10693 10694 10694 10694 10695 10696 10697 10697 10698 10699 10700
10549 10547 10548 10551 10553 10556 10560 10563 10566 10568 10569 10569 10569 10570 10570 10572 10574 10576 10578 10582 10587 10589 10590 10593 10597 10597 10597 10599 10602 10605 10607 10608 10608 10610 10614 10619 10624 10628 10630 10632 10633 10634 10636 10639 10640 10642 10647 10651 10652 10654 10658 10662 10666 10670 10672 10676 10680 10690 10698 10695 10691 10694 10694 10690 10688 10687 10687 10687 10687 10687 10686 10686 10686 10687 10688 10689 10689 10689 10690 10691 10692 10693 10694 10695 10695 10696
10540 10540 10542 10545 10547 10550 10553 10556 10559 10561 10562 10562 10563 10563 10563 10566 10569 10570 10573 10578 10582 10583 10584 10588 10591 10591 10591 10593 10596 10599 10602 10601 10601 10604 10609 10613 10618 10622 10625 10626 10627 10627 10630 10632 10634 10638 10642 10645 10647 10649 10652 10656 10661 10665 10668 10671 10675 10683 10690 10689 10686 10688 10689 10688 10685 10682 10683 10682 10683 10683 10682 10682 10683 10684 10684 10684 10685 10686 10687 10688 10688 10689 10690 10691 10692 10693
10532 10533 10536 10538 10541 10544 10547 10550 10552 10553 10555 10556 10556 10556 10558 10561 10564 10566 10568 10573 10576 10576 10579 10583 10585 10585 10585 10586 10589 10593 10595 10594 10595 10599 10603 10607 10612 10616 10618 10619 10620 10621 10623 10626 10629 10633 10637 10639 10641 10643 10647 10652 10657 10660 10663 10667 10670 10676 10682 10683 10683 10684 10686 10685 10680 10676 10677 10678 10678 10678 10678 10679 10679 10679 10680 10680 10681 10682 10683 10684 10684 10685 10686 10687 10688 10689
10525 10526 10530 10532 10535 10538 10541 10543 10544 10548 10550 10549 10549 10552 10555 10556 10559 10561 10563 10566 10570 10571 10574 10577 10578 10578 10579 10580 10582 10586 10589 10588 10590 10594 10597 10601 10607 10610 10611 10612 10614 10615 10617 10620 10624 10629 10631 10633 10636 10639 10643 10648 10652 10656 10659 10662 10665 10669 10674 10677 10679 10681 10681 10679 10676 10672 10671 10672 10673 10674 10675 10675 10675 10675 10676 10677 10678 10679 10680 10680 10681 10681 10682 10683 10684 10685
10516 10520 10525 10527 10529 10532 10534 10534 10538 10543 10543 10541 10544 10548 10550 10551 10554 10557 10559 10560 10563 10566 10567 10570 10572 10573 10573 10574 10576 10579 10582 10584 10586 10589 10592 10596 10600 10603 10605 10607 10607 10608 10611 10615 10619 10623 10626 10629 10633 10636 10640 10644 10648 10652 10655 10658 10660 10663 10668 10671 10674 10677 10677 10674 10672 10670 10667 10667 10669 10670 10671 10671 10671 10671 10673 10674 10674 10675 10676 10676 10677 10677 10678 10680 10680 10681
10510 10515 10520 10521 10523 10524 10524 10528 10533 10535 10534 10535 10540 10543 10544 10546 10549 10551 10553 10554 10557 10560 10561 10562 10566 10568 10567 10568 10571 10573 10576 10579 10581 10583 10587 10591 10594 10596 10599 10601 10601 10603 10606 10611 10614 10618 10622 10627 10631 10634 10636 10639 10643 10647 10650 10653 10656 10659 10663 10667 10670 10675 10675 10669 10666 10665 10663 10663 10665 10667 10667 10667 10667 10668 10670 10670 10671 10671 10672 10672 10673 10673 10674 10676 10677 10677
10506 10510 10512 10514 10515 10514 10516 10522 10527 10526 10527 10531 10535 10537 10539 10541 10543 10546 10548 10549 10552 10554 10554 10556 10560 10562 10562 10563 10566 10568 10570 10573 10576 10579 10583 10585 10588 10591 10593 10595 10596 10599 10602 10606 10610 10615 10620 10625 10629 10630 10632 10635 10638 10642 10647 10650 10654 10656 10660 10664 10666 10671 10672 10665 10662 10661 10660 10660 10661 10662 10663 10663 10663 10665 10666 10666 10666 10667 10667 10667 10668 10669 10670 10671 10672 10673
10500 10503 10505 10507 10507 10507 10511 10517 10519 10519 10523 10527 10529 10532 10534 10537 10538 10541 10543 10545 10548 10548 10547 10550 10555 10557 10556 10557 10560 10562 10564 10568 10571 10575 10578 10580 10582 10585 10587 10590 10592 10595 10598 10602 10607 10613 10619 10622 10624 10625 10627 10631 10634 10639 10644 10648 10653 10656 10657 10660 10662 10667 10669 10664 10659 10658 10657 10658 10658 10658 10659 10659 10660 10661 10661 10661 10662 10662 10662 10663 10664 10665 10666 10667 10668 10668
10495 10498 10499 10500 10500 10503 10508 10511 10513 10515 10519 10521 10524 10527 10530 10532 10534 10537 10539 10540 10543 10542 10541 10546 10551 10552 10551 10551 10555 10558 10560 10564 10567 10570 10573 10575 10577 10580 10584 10587 10590 10593 10596 10600 10605 10611 10614 10615 10616 10619 10621 10626 10630 10635 10641 10648 10655 10657 10655 10655 10658 10662 10665 10661 10657 10655 10654 10654 10654 10654 10655 10655 10656 10657 10656 10657 10657 10657 10658 10659 10660 10660 10662 10663 10664 10664
10492 10493 10493 10493 10495 10499 10503 10506 10508 10510 10513 10517 10520 10523 10526 10528 10531 10532 10534 10536 10537 10536 10537 10542 10547 10548 10546 10546 10551 10555 10556 10559 10562 10565 10568 10570 10573 10576 10580 10583 10586 10589 10592 10595 10600 10604 10606 10607 10611 10614 10618 10623 10628 10633 10639 10644 10649 10649 10647 10647 10650 10655 10660 10659 10655 10653 10651 10649 10649 10650 10650 10651 10652 10651 10651 10652 10652 10653 10654 10654 10655 10656 10658 10659 10660 10660
10486 10486 10487 10488 10489 10493 10497 10500 10501 10504 10510 10514 10516 10519 10522 10524 10525 10527 10529 10530 10531 10531 10534 10539 10542 10543 10542 10543 10547 10550 10551 10554 10557 10560 10562 10565 10568 10572 10574 10577 10580 10584 10586 10590 10594 10597 10600 10604 10608 10612 10617 10622 10627 10631 10632 10633 10634 10635 10636 10638 10642 10647 10653 10655 10652 10651 10650 10647 10643 10643 10644 10645 10646 10646 10646 10647 10647 10648 10649 10650 10651 10652 10653 10654 10655 10656
10479 10480 10481 10482 10484 10488 10492 10493 10496 10501 10506 10509 10512 10515 10517 10518 10520 10521 10523 10525 10526 10527 10530 10534 10538 10537 10536 10538 10543 10545 10547 10549 10552 10555 10558 10561 10565 10568 10570 10573 10576 10579 10582 10586 10589 10592 10596 10600 10604 10609 10615 10619 10622 10623 10621 10622 10626 10630 10631 10633 10637 10642 10645 10646 10646 10647 10648 10645 10638 10636 10638 10639 10640 10641 10642 10643 10643 10644 10645 10646 10647 10648 10649 10650 10651 10652
10473 10474 10475 10477 10480 10483 10486 10489 10494 10498 10501 10504 10508 10510 10511 10513 10515 10517 10518 10520 10521 10523 10526 10530 10532 10531 10531 10534 10539 10541 10542 10545 10547 10550 10554 10557 10561 10564 10567 10570 10572 10575 10578 10582 10585 10587 10590 10595 10600 10606 10610 10612 10612 10610 10610 10615 10622 10625 10627 10631 10635 10637 10637 10636 10636 10637 10640 10640 10635 10631 10632 10633 10634 10636 10638 10639 10640 10641 10641 10642 10643 10645 10646 10647 10647 10648
10468 10470 10471 10474 10476 10479 10482 10486 10490 10494 10496 10500 10504 10505 10506 10509 10511 10512 10514 10515 10517 10519 10521 10524 10526 10525 10526 10531 10534 10536 10538 10540 10543 10546 10550 10554 10557 10559 10562 10564 10566 10570 10574 10576 10579 10582 10586 10589 10595 10601 10605 10605 10603 10602 10605 10612 10617 10619 10623 10627 10629 10630 10631 10630 10630 10629 10631 10633 10631 10628 10628 10629 10630 10632 10634 10635 10636 10637 10638 10639 10640 10641 10643 10644 10644 10644
10464 10465 10467 10470 10472 10475 10479 10482 10486 10489 10492 10496 10498 10499 10502 10505 10506 10507 10509 10511 10513 10515 10517 10519 10519 10520 10522 10526 10528 10530 10533 10535 10538 10542 10546 10549 10551 10553 10555 10556 10559 10563 10565 10567 10571 10577 10584 10588 10591 10596 10599 10599 10598 10600 10604 10609 10612 10615 10618 10621 10623 10624 10626 10626 10626 10627 10627 10627 10626 10625 10626 10626 10626 10628 10630 10631 10632 10633 10633 10634 10636 10638 10639 10640 10640 10640
10459 10461 10463 10465 10467 10471 10475 10478 10481 10485 10488 10490 10492 10495 10498 10500 10501 10503 10505 10506 10508 10510 10512 10514 10514 10516 10518 10520 10522 10525 10528 10531 10534 10538 10541 10543 10546 10548 10550 10553 10556 10556 10555 10558 10564 10571 10579 10585 10589 10592 10594 10595 10598 10600 10602 10605 10609 10612 10614 10616 10618 10620 10622 10622 10622 10623 10623 10623 10623 10623 10623 10623 10623 10624 10625 10626 10627 10627 10628 10630 10631 10633 10634 10636 10636 10636
10454 10456 10459 10461 10463 10467 10470 10473 10477 10481 10483 10485 10488 10491 10493 10495 10496 10498 10500 10502 10504 10506 10508 10509 10510 10511 10513 10515 10518 10520 10524 10527 10531 10534 10537 10539 10541 10545 10548 10553 10556 10556 10554 10555 10559 10565 10572 10579 10585 10589 10590 10593 10596 10598 10599 10602 10605 10608 10609 10610 10612 10616 10618 10619 10619 10619 10619 10619 10619 10619 10619 10619 10620 10620 10621 10621 10622 10623 10624 10626 10627 10628 10629 10631 10632 10632
10450 10452 10455 10457 10460 10463 10467 10470 10473 10476 10479 10481 10484 10487 10488 10490 10493 10494 10496 10498 10499 10501 10503 10504 10506 10507 10509 10511 10514 10517 10521 10524 10528 10531 10533 10535 10539 10542 10545 10548 10550 10552 10553 10555 10556 10560 10567 10573 10579 10584 10587 10590 10594 10596 10598 10599 10600 10602 10603 10604 10608 10612 10614 10615 10616 10616 10615 10615 10615 10614 10615 10615 10616 10616 10616 10617 10618 10619 10621 10622 10622 10623 10624 10626 10627 10627
10446 10448 10450 10454 10457 10460 10463 10466 10468 10472 10475 10477 10480 10482 10484 10486 10489 10490 10492 10493 10495 10497 10499 10500 10501 10502 10505 10508 10511 10514 10518 10522 10525 10528 10530 10532 10536 10538 10542 10544 10546 10548 10551 10553 10555 10558 10564 10570 10575 10579 10583 10587 10591 10594 10595 10595 10596 10597 10598 10601 10604 10607 10608 10610 10611 10611 10611 10611 10610 10610 10611 10611 10612 10612 10612 10613 10614 10615 10617 10618 10618 10618 10619 10621 10622 10623
10442 10444 10446 10450 10453 10456 10458 10461 10464 10467 10471 10473 10475 10477 10479 10482 10484 10486 10488 10489 10491 10493 10495 10496 10497 10499 10501 10504 10507 10511 10515 10519 10522 10525 10527 10530 10533 10536 10539 10543 10546 10548 10550 10552 10555 10559 10563 10568 10573 10577 10580 10584 10588 10591 10591 10592 10593 10593 10594 10596 10598 10600 10602 10603 10604 10604 10604 10604 10605 10605 10606 10607 10607 10608 10609 10610 10610 10611 10612 10613 10613 10613 10614 10616 10617 10618
10439 10440 10442 10446 10449 10451 10454 10457 10460 10463 10467 10469 10471 10473 10475 10477 10479 10482 10484 10486 10488 10489 10491 10492 10494 10495 10498 10501 10504 10507 10511 10515 10518 10521 10523 10526 10530 10533 10537 10540 10543 10546 10549 10552 10555 10558 10562 10567 10571 10574 10577 10581 10586 10587 10586 10586 10586 10587 10587 10589 10592 10594 10596 10596 10597 10597 10598 10599 10599 10600 10601 10602 10603 10604 10605 10605 10606 10606 10607 10609 10608 10608 10609 10611 10612 10612
10435 10436 10438 10441 10445 10448 10451 10454 10456 10459 10462 10464 10466 10468 10470 10473 10475 10477 10480 10482 10483 10485 10486 10488 10489 10491 10494 10497 10501 10504 10507 10511 10514 10516 10519 10522 10526 10529 10533 10536 10539 10542 10546 10550 10554 10557 10561 10565 10569 10572 10575 10579 10582 10581 10580 10579 10578 10579 10581 10583 10585 10587 10589 10590 10590 10591 10592 10593 10594 10595 10596 10598 10598 10599 10600 10601 10601 10601 10602 10603 10603 10603 10604 10605 10606 10607
10430 10432 10434 10437 10441 10444 10447 10450 10451 10453 10456 10459 10462 10464 10466 10468 10470 10473 10476 10478 10479 10480 10482 10483 10485 10487 10491 10494 10497 10500 10504 10507 10509 10512 10515 10518 10522 10526 10529 10532 10536 10540 10543 10545 10550 10554 10557 10560 10565 10569 10572 10575 10576 10574 10572 10572 10571 10574 10577 10578 10579 10581 10582 10584 10585 10586 10587 10588 10589 10591 10591 10592 10593 10594 10595 10596 10596 10596 10597 10598 10598 10597 10598 10599 10600 10601
10426 10429 10431 10433 10437 10441 10443 10445 10447 10449 10452 10455 10457 10459 10461 10464 10466 10469 10472 10473 10475 10476 10478 10479 10481 10484 10488 10491 10494 10496 10499 10503 10506 10509 10512 10515 10518 10522 10526 10528 10532 10536 10539 10541 10544 10548 10550 10553 10559 10562 10564 10566 10567 10566 10567 10568 10568 10571 10574 10574 10575 10577 10578 10579 10580 10582 10583 10586 10588 10588 10587 10586 10588 10589 10590 10591 10591 10590 10591 10592 10592 10592 10592 10594 10594 10595
10422 10425 10427 10429 10432 10436 10439 10441 10443 10445 10448 10450 10452 10455 10457 10460 10462 10465 10467 10469 10470 10472 10474 10476 10478 10481 10483 10486 10489 10492 10495 10499 10503 10506 10509 10511 10515 10518 10521 10524 10528 10531 10534 10536 10538 10542 10544 10548 10552 10554 10556 10559 10561 10562 10565 10566 10566 10568 10570 10570 10571 10572 10573 10575 10576 10576 10578 10582 10584 10584 10582 10582 10583 10584 10585 10585 10585 10585 10586 10587 10588 10588 10587 10588 10588 10589
10416 10419 10422 10424 10428 10432 10435 10437 10438 10441 10443 10446 10448 10450 10453 10455 10458 10460 10463 10465 10467 10468 10470 10472 10474 10476 10478 10482 10485 10488 10491 10495 10498 10502 10504 10507 10510 10514 10516 10520 10523 10525 10527 10530 10533 10536 10539 10542 10545 10547 10550 10554 10557 10560 10561 10561 10561 10564 10565 10566 10566 10567 10568 10570 10570 10570 10574 10577 10578 10578 10578 10578 10579 10580 10580 10581 10581 10581 10582 10583 10584 10584 10583 10583 10583 10584
10412 10415 10417 10419 10423 10426 10430 10432 10434 10436 10439 10441 10443 10446 10449 10451 10454 10456 10458 10460 10462 10464 10466 10468 10470 10472 10474 10478 10481 10484 10487 10491 10494 10497 10500 10503 10506 10509 10512 10515 10518 10520 10522 10524 10528 10530 10533 10536 10539 10541 10544 10548 10552 10554 10555 10556 10557 10560 10561 10561 10561 10561 10563 10564 10565 10566 10570 10572 10573 10574 10574 10575 10576 10576 10576 10577 10577 10576 10577 10577 10579 10580 10580 10579 10580 10580
10408 10411 10413 10416 10418 10422 10425 10427 10429 10432 10434 10436 10439 10442 10444 10447 10449 10451 10454 10456 10458 10459 10462 10464 10465 10467 10470 10473 10477 10480 10483 10487 10490 10493 10496 10499 10502 10506 10508 10511 10514 10515 10517 10520 10523 10525 10528 10530 10532 10536 10539 10543 10546 10548 10550 10552 10554 10556 10557 10556 10556 10556 10557 10559 10560 10562 10565 10567 10569 10571 10570 10570 10571 10572 10572 10572 10573 10572 10572 10572 10574 10576 10575 10576 10576 10576
10404 10408 10410 10412 10414 10417 10420 10422 10424 10427 10429 10432 10435 10437 10440 10442 10445 10447 10450 10451 10453 10455 10457 10460 10462 10464 10466 10469 10472 10476 10479 10483 10486 10489 10492 10495 10499 10502 10505 10507 10510 10511 10513 10515 10518 10519 10522 10525 10528 10531 10535 10538 10540 10542 10545 10548 10549 10550 10552 10551 10550 10551 10552 10554 10556 10558 10560 10561 10564 10566 10565 10565 10566 10566 10566 10567 10567 10567 10568 10567 10568 10569 10570 10570 10571 10572
10399 10403 10406 10407 10409 10412 10414 10416 10419 10422 10424 10427 10430 10432 10435 10438 10440 10443 10445 10447 10448 10450 10453 10455 10458 10460 10462 10464 10467 10471 10475 10479 10482 10486 10489 10492 10495 10498 10501 10503 10506 10507 10509 10512 10514 10515 10517 10520 10523 10527 10530 10532 10534 10537 10540 10542 10544 10545 10547 10546 10545 10546 10547 10549 10551 10553 10554 10555 10556 10558 10559 10560 10560 10561 10561 10561 10561 10562 10562 10562 10563 10564 10564 10564 10565 10566
10393 10397 10400 10402 10405 10408 10409 10412 10415 10417 10419 10422 10424 10427 10430 10433 10436 10438 10440 10442 10444 10446 10449 10451 10453 10456 10458 10460 10463 10467 10471 10475 10478 10481 10485 10488 10491 10494 10497 10499 10501 10503 10505 10507 10510 10511 10513 10516 10518 10521 10524 10526 10528 10531 10534 10536 10538 10540 10541 10541 10540 10540 10542 10543 10544 10546 10547 10549 10550 10551 10552 10553 10555 10556 10556 10557 10557 10557 10556 10556 10557 10558 10559 10559 10560 10560
10388 10392 10394 10397 10400 10403 10405 10408 10410 10412 10415 10417 10419 10422 10425 10428 10431 10433 10435 10437 10439 10441 10444 10446 10448 10451 10453 10456 10459 10463 10466 10470 10473 10477 10480 10483 10487 10489 10492 10494 10497 10498 10500 10502 10505 10507 10508 10511 10513 10516 10518 10520 10522 10525 10527 10529 10531 10533 10534 10533 10533 10534 10535 10536 10537 10540 10542 10543 10545 10545 10546 10548 10549 10551 10551 10551 10552 10552 10552 10551 10551 10552 10552 10553 10553 10554
10384 10387 10389 10391 10395 10397 10400 10404 10405 10407 10411 10414 10415 10418 10421 10424 10426 10429 10431 10432 10434 10436 10438 10441 10443 10446 10449 10452 10455 10458 10462 10465 10468 10472 10475 10478 10481 10484 10487 10489 10492 10494 10495 10498 10500 10501 10503 10505 10507 10510 10512 10514 10517 10519 10520 10522 10524 10526 10527 10527 10527 10528 10529 10530 10531 10534 10536 10538 10539 10540 10541 10542 10543 10544 10545 10546 10547 10547 10547 10547 10547 10547 10547 10546 10546 10547
10378 10381 10383 10386 10389 10392 10395 10398 10401 10403 10407 10410 10411 10413 10416 10419 10421 10424 10426 10427 10428 10431 10433 10435 10438 10441 10444 10447 10450 10454 10457 10460 10463 10467 10470 10473 10476 10478 10482 10484 10486 10489 10490 10492 10494 10496 10498 10499 10501 10504 10507 10509 10511 10513 10514 10516 10518 10519 10520 10522 10523 10523 10524 10524 10525 10527 10529 10531 10533 10534 10535 10536 10537 10538 10539 10540 10541 10541 10542 10542 10542 10542 10540 10540 10541 10542
10369 10373 10376 10380 10383 10386 10390 10393 10396 10399 10402 10405 10407 10409 10411 10413 10415 10417 10420 10422 10423 10426 10428 10430 10433 10436 10439 10442 10445 10448 10451 10454 10458 10462 10465 10467 10470 10473 10476 10478 10481 10483 10484 10486 10488 10491 10492 10493 10495 10498 10501 10503 10505 10507 10508 10510 10512 10513 10514 10515 10517 10518 10518 10519 10519 10520 10522 10524 10525 10527 10528 10530 10531 10532 10532 10533 10534 10535 10535 10536 10536 10535 10533 10533 10535 10537
10362 10367 10370 10373 10377 10381 10385 10388 10391 10394 10397 10399 10402 10404 10406 10408 10409 10412 10415 10417 10419 10422 10424 10426 10429 10431 10434 10437 10440 10443 10447 10450 10453 10456 10459 10461 10464 10467 10470 10472 10474 10476 10478 10480 10483 10485 10486 10487 10490 10493 10494 10496 10498 10500 10502 10504 10506 10506 10507 10508 10510 10512 10513 10513 10513 10513 10515 10517 10518 10519 10521 10523 10524 10524 10525 10526 10526 10527 10528 10528 10528 10528 10527 10527 10528 10529
10359 10364 10366 10369 10373 10377 10380 10383 10386 10389 10392 10395 10397 10399 10401 10403 10404 10407 10410 10412 10414 10418 10420 10422 10424 10426 10429 10432 10434 10438 10442 10445 10448 10451 10453 10455 10458 10460 10463 10465 10468 10470 10472 10474 10476 10478 10479 10481 10485 10487 10488 10490 10492 10493 10495 10497 10499 10500 10500 10501 10503 10506 10507 10507 10506 10506 10508 10509 10511 10512 10514 10515 10516 10516 10517 10519 10519 10520 10521 10521 10521 10521 10520 10520 10520 10521
10354 10359 10362 10366 10369 10372 10375 10378 10381 10384 10387 10389 10392 10394 10396 10398 10399 10402 10405 10406 10409 10412 10415 10417 10419 10421 10424 10426 10429 10433 10436 10439 10442 10445 10447 10449 10451 10454 10456 10459 10461 10463 10465 10467 10469 10471 10473 10475 10478 10481 10482 10484 10485 10487 10488 10490 10491 10492 10493 10494 10496 10498 10499 10499 10499 10500 10501 10501 10503 10504 10506 10507 10508 10509 10510 10511 10512 10513 10514 10514 10514 10513 10513 10513 10513 10512
10349 10354 10357 10360 10363 10367 10370 10372 10375 10378 10381 10383 10386 10388 10391 10393 10394 10396 10398 10401 10403 10406 10409 10412 10414 10416 10418 10421 10424 10427 10430 10432 10435 10438 10441 10443 10446 10448 10450 10452 10454 10455 10457 10459 10462 10465 10467 10469 10471 10474 10475 10477 10478 10479 10481 10482 10483 10484 10485 10486 10488 10490 10491 10492 10493 10494 10495 10495 10495 10495 10496 10498 10500 10502 10503 10504 10505 10506 10506 10507 10506 10506 10505 10505 10504 10504
10344 10349 10352 10354 10357 10361 10364 10366 10369 10373 10375 10378 10379 10381 10384 10387 10388 10389 10392 10394 10397 10400 10403 10405 10407 10410 10412 10415 10418 10421 10423 10425 10428 10430 10433 10436 10438 10440 10443 10445 10446 10448 10450 10453 10455 10457 10460 10461 10463 10465 10467 10469 10471 10472 10473 10474 10475 10476 10477 10478 10479 10480 10482 10484 10485 10487 10488 10488 10488 10488 10488 10490 10492 10493 10495 10496 10497 10497 10497 10497 10497 10497 10496 10496 10495 10494
10341 10344 10347 10349 10352 10355 10357 10359 10362 10366 10369 10371 10373 10374 10376 10379 10381 10383 10384 10386 10389 10393 10396 10398 10400 10403 10406 10408 10411 10414 10416 10418 10420 10423 10426 10428 10430 10432 10435 10437 10439 10441 10444 10446 10447 10449 10451 10454 10455 10457 10459 10460 10462 10464 10464 10465 10466 10467 10469 10470 10470 10471 10472 10473 10476 10478 10480 10480 10481 10481 10482 10483 10484 10485 10486 10487 10487 10488 10488 10488 10487 10487 10486 10486 10485 10484
10336 10339 10342 10343 10346 10348 10350 10352 10355 10358 10361 10364 10366 10367 10369 10371 10373 10375 10377 10378 10381 10384 10387 10390 10393 10395 10398 10400 10403 10406 10409 10412 10414 10416 10419 10421 10423 10425 10428 10429 10432 10434 10436 10438 10439 10441 10444 10446 10447 10449 10451 10451 10452 10454 10456 10457 10458 10459 10460 10461 10462 10463 10463 10463 10465 10467 10470 10471 10472 10472 10473 10474 10476 10477 10477 10478 10478 10478 10478 10478 10478 10477 10477 10476 10475 10474
10330 10333 10335 10337 10339 10341 10343 10345 10348 10350 10353 10355 10358 10360 10362 10363 10365 10367 10369 10370 10372 10375 10378 10382 10385 10387 10389 10391 10394 10398 10402 10405 10407 10409 10411 10413 10415 10418 10420 10422 10425 10427 10428 10430 10432 10433 10435 10437 10439 10440 10442 10443 10443 10445 10447 10448 10450 10451 10451 10452 10453 10454 10455 10455 10456 10457 10458 10460 10461 10462 10463 10464 10465 10465 10466 10467 10468 10468 10468 10469 10468 10468 10467 10466 10465 10463
10324 10326 10329 10330 10332 10334 10336 10338 10340 10343 10345 10347 10350 10352 10354 10355 10357 10359 10360 10362 10363 10365 10368 10373 10376 10378 10380 10382 10385 10389 10394 10397 10400 10401 10404 10406 10407 10410 10413 10415 10417 10419 10420 10421 10423 10424 10426 10428 10430 10432 10433 10434 10435 10437 10438 10439 10440 10441 10443 10444 10444 10445 10446 10446 10447 10447 10448 10449 10450 10450 10451 10452 10453 10453 10454 10454 10455 10455 10455 10456 10456 10456 10455 10454 10453 10452
10318 10320 10323 10325 10327 10329 10330 10332 10334 10336 10338 10340 10343 10345 10346 10348 10349 10351 10352 10353 10354 10355 10358 10362 10366 10368 10370 10372 10375 10380 10385 10389 10393 10394 10396 10397 10400 10403 10405 10407 10409 10410 10411 10413 10414 10415 10417 10418 10420 10422 10424 10425 10426 10428 10429 10431 10432 10432 10433 10435 10435 10436 10437 10437 10438 10438 10438 10439 10440 10440 10440 10441 10441 10442 10442 10442 10442 10442 10442 10443 10443 10444 10443 10442 10441 10440
10313 10314 10317 10319 10321 10322 10323 10325 10327 10328 10330 10332 10334 10336 10338 10340 10342 10343 10344 10345 10345 10346 10348 10351 10354 10357 10359 10361 10366 10371 10377 10381 10384 10386 10387 10390 10393 10396 10397 10399 10400 10401 10402 10404 10405 10406 10407 10409 10411 10413 10415 10416 10417 10418 10420 10422 10423 10424 10424 10425 10426 10427 10428 10429 10429 10430 10430 10431 10431 10432 10432 10432 10432 10432 10433 10433 10433 10432 10432 10432 10432 10432 10432 10431 10429 10428
10308 10309 10311 10312 10314 10315 10317 10318 10319 10321 10322 10323 10325 10327 10329 10331 10333 10334 10335 10336 10336 10337 10338 10340 10342 10346 10349 10351 10354 10359 10366 10372 10376 10378 10379 10381 10384 10386 10388 10389 10390 10392 10393 10394 10395 10396 10397 10399 10401 10403 10405 10406 10408 10409 10410 10412 10413 10414 10415 10415 10416 10417 10419 10420 10420 10421 10422 10422 10423 10423 10423 10423 10423 10423 10423 10423 10423 10423 10422 10422 10421 10421 10421 10420 10418 10416
10303 10304 10305 10306 10307 10308 10309 10311 10312 10313 10314 10315 10316 10318 10319 10321 10323 10324 10325 10327 10328 10328 10329 10330 10332 10335 10338 10340 10342 10346 10353 10360 10366 10369 10369 10371 10373 10374 10376 10377 10379 10381 10382 10383 10385 10386 10388 10389 10391 10393 10395 10397 10399 10400 10400 10401 10402 10404 10405 10406 10407 10408 10409 10410 10411 10412 10412 10413 10413 10413 10413 10413 10412 10412 10412 10412 10412 10413 10413 10412 10411 10410 10410 10409 10408 10406